Weather History for Jackson, TN

Change the Weather History Date:

Sunday, January 27, 2013

  Actual Average Record
Temperature  
Mean Temperature 49 °F 39 °F  
Max Temperature 59 °F 49 °F 72 °F (1975)
Min Temperature 39 °F 28 °F 1 °F (1963)
Degree Days  
Heating Degree Days 16 26  
Month to date heating degree days 667 728  
Since 1 July heating degree days 2029 2146  
Cooling Degree Days 0 0  
Month to date cooling degree days 3 0  
Year to date cooling degree days 3 0  
Moisture  
Dew Point 39 °F    
Average Humidity 64    
Maximum Humidity 71    
Minimum Humidity 57    
Precipitation  
Precipitation T in 0.13 in 2.45 in (1994)
Month to date precipitation 5.86 3.49  
Year to date precipitation 5.86 3.49  
Snow  
Snow 0.00 in 0.10 in 2.70 in (1985)
Month to date snowfall T 2.0  
Since 1 July snowfall 0.5 2.3  
Snow Depth 0.00 in    
Sea Level Pressure  
Sea Level Pressure 30.23 in    
Wind  
Wind Speed 6 mph (SE)    
Max Wind Speed 17 mph    
Max Gust Speed 28 mph    
Visibility 10 miles    
Events      
T = Trace of Precipitation, MM = Missing Value Source: NWS Daily Summary

Daily Weather History Graph

Daily Weather History Graph

Search for Another Location

Airport:

Trip Planner

Search our weather history database for the weather conditions in past years. The results will help you decide how hot, cold, wet, or windy it might be!

Date:

Astronomy

Jan. 27, 2013 Rise Set
Actual Time 6:58 AM CST 5:18 PM CST
Civil Twilight 6:31 AM CST 5:45 PM CST
Nautical Twilight 6:01 AM CST 6:16 PM CST
Astronomical Twilight 5:30 AM CST 6:46 PM CST
Moon 6:08 PM CST (1/27) 6:54 AM CST (1/27)
Length of Visible Light 11h 13m
Length of Day
10h 19m
Full, 100% of the Moon is Illuminated
Jan 27
Full
Feb 3
Last Quarter
Feb 10
New
Feb 17
First Quarter
Feb 25
Full

Hourly Weather History & Observations

Time (CST) Temp. Windchill Dew Point Humidity Pressure Visibility Wind Dir Wind Speed Gust Speed Precip Events Conditions
12:53 AM 39.9 °F 35.8 °F 30.9 °F 70% 30.29 in 10.0 mi East 5.8 mph - N/A   Overcast
1:53 AM 39.9 °F 35.1 °F 30.9 °F 70% 30.28 in 10.0 mi East 6.9 mph - N/A   Overcast
2:53 AM 41.0 °F 38.0 °F 32.0 °F 70% 30.28 in 10.0 mi East 4.6 mph - N/A   Overcast
3:53 AM 41.0 °F 36.4 °F 32.0 °F 70% 30.27 in 10.0 mi East 6.9 mph - N/A   Overcast
4:53 AM 42.1 °F 39.2 °F 32.0 °F 67% 30.27 in 10.0 mi ESE 4.6 mph - N/A   Overcast
5:40 AM 42.8 °F 39.3 °F 33.8 °F 70% 30.27 in 10.0 mi ESE 5.8 mph - N/A   Overcast
5:53 AM 42.1 °F 38.4 °F 33.1 °F 70% 30.27 in 10.0 mi ESE 5.8 mph - N/A   Overcast
6:53 AM 43.0 °F 41.3 °F 33.1 °F 68% 30.28 in 10.0 mi ESE 3.5 mph - N/A   Overcast
7:53 AM 44.1 °F - 34.0 °F 68% 30.29 in 10.0 mi Calm Calm - N/A   Overcast
8:53 AM 44.1 °F - 36.0 °F 73% 30.30 in 10.0 mi Calm Calm - N/A   Overcast
9:53 AM 46.0 °F 41.9 °F 37.9 °F 73% 30.29 in 10.0 mi SSE 8.1 mph - 0.00 in   Overcast
10:53 AM 48.0 °F - 39.0 °F 71% 30.28 in 10.0 mi SSE 6.9 mph - N/A   Overcast
11:53 AM 52.0 °F - 39.0 °F 61% 30.25 in 10.0 mi SSE 8.1 mph - N/A   Overcast
12:01 PM 51.8 °F - 39.2 °F 62% 30.25 in 10.0 mi Variable 5.8 mph - N/A   Overcast
12:53 PM 55.0 °F - 41.0 °F 59% 30.22 in 10.0 mi SSE 8.1 mph - N/A   Overcast
1:53 PM 57.0 °F - 43.0 °F 59% 30.19 in 10.0 mi South 9.2 mph - N/A   Scattered Clouds
2:53 PM 59.0 °F - 44.1 °F 58% 30.19 in 10.0 mi South 10.4 mph - N/A   Scattered Clouds
3:53 PM 57.9 °F - 44.1 °F 60% 30.17 in 10.0 mi SSE 6.9 mph - N/A   Partly Cloudy
4:53 PM 55.9 °F - 43.0 °F 62% 30.17 in 10.0 mi SSE 10.4 mph - N/A   Scattered Clouds
5:53 PM 55.0 °F - 43.0 °F 64% 30.18 in 10.0 mi SSE 6.9 mph - N/A   Partly Cloudy
6:53 PM 54.0 °F - 43.0 °F 66% 30.19 in 10.0 mi SSE 4.6 mph - N/A   Partly Cloudy
7:53 PM 51.1 °F - 42.1 °F 71% 30.19 in 10.0 mi ESE 3.5 mph - N/A   Clear
8:53 PM 52.0 °F - 43.0 °F 71% 30.18 in 10.0 mi SSE 5.8 mph - N/A   Clear
9:53 PM 55.0 °F - 44.1 °F 67% 30.15 in 10.0 mi South 8.1 mph 23.0 mph N/A   Clear
10:53 PM 55.9 °F - 45.0 °F 67% 30.16 in 10.0 mi South 10.4 mph 19.6 mph N/A   Clear
11:53 PM 55.9 °F - 44.1 °F 64% 30.15 in 10.0 mi South 9.2 mph - N/A   Clear